Skip Page Navigation
NASA JPL Caltech
NASA Logo - Jet Propulsion Laboratory + View the NASA Portal
+ Center for Near-Earth Object Studies
JPL Home Earth Solar System Stars & Galaxies Technology
JPL Solar System Dynamics
BODIES ORBITS EPHEMERIDES TOOLS PHYSICAL DATA DISCOVERY FAQ SITE MAP
JPL Small-Body Database Browser
Search: [ help ]  
413469 (2005 GN75)
Classification: Inner Main-belt Asteroid          SPK-ID: 2413469
Ephemeris | Orbit Diagram | Orbital Elements | Mission Design | Physical Parameters | Discovery Circumstances ]

[ show orbit diagram ]
Orbital Elements at Epoch 2459000.5 (2020-May-31.0) TDB
Reference: JPL 12 (heliocentric ecliptic J2000)
 Element Value Uncertainty (1-sigma)   Units 
e .1015307942889002 4.9613e-08  
a 1.928161554156707 1.176e-08 au
q 1.732393780045856 9.8837e-08 au
i 20.44254124770132 6.1896e-06 deg
node 203.6158990439116 1.5289e-05 deg
peri 283.4542177272842 3.7388e-05 deg
M 301.7472629728076 3.7605e-05 deg
tp 2459158.744050385140
(2020-Nov-05.24405038)
0.00010283 TDB
period 977.943029733655
2.68
8.9465e-06
2.449e-08
d
yr
n .3681196031409384 3.3677e-09 deg/d
Q 2.123929328267557 1.2954e-08 au
  Orbit Determination Parameters
   # obs. used (total)      137  
   data-arc span      7597 days (20.80 yr)  
   first obs. used      1998-10-22  
   last obs. used      2019-08-10  
   planetary ephem.      DE431  
   SB-pert. ephem.      SB431-N16  
   condition code      0  
   norm. resid. RMS      .61306  
   source      ORB  
   producer      Otto Matic  
   solution date      2019-Sep-24 07:26:25  

Additional Information
 Earth MOID = .822466 au 
 Jupiter MOID = 2.96967 au 
 T_jup = 3.834 
[ hide covariance matrix ]
Orbital Elements at Epoch 2457447.5 (2016-Feb-29.0) TDB
Reference: JPL 12 (heliocentric ecliptic J2000)
 Element Value Uncertainty (1-sigma)   Units 
e .10134819369315 4.9574e-08  
q 1.732727042867867 9.8756e-08 au
tp 2457202.644841121595
(2015-Jun-29.14484112)
9.5874e-05 TDB
node 203.6383027595011 1.5283e-05 deg
peri 283.3881901514865 3.7478e-05 deg
i 20.44711272162222 6.1909e-06 deg
  Orbit Determination Parameters
   # obs. used (total)      137  
   data-arc span      7597 days (20.80 yr)  
   first obs. used      1998-10-22  
   last obs. used      2019-08-10  
   planetary ephem.      DE431  
   SB-pert. ephem.      SB431-N16  
   condition code      0  
   norm. resid. RMS      .61306  
   source      ORB  
   producer      Otto Matic  
   solution date      2019-Sep-24 07:26:25  

Additional Information
 Jupiter MOID = 2.96967 au 
 T_jup = 3.834 
Orbit Covariance (6×6)
  e q tp node peri i
e 2.457564311669558E-15 -4.869170831962912E-15 6.984173296740857E-13 -1.030596467492036E-14 2.535686071140369E-13 2.015054003397008E-14
q -4.869170831962912E-15 9.752705505846783E-15 -1.016170108525594E-12 1.843280956439476E-14 -3.75804100323537E-13 -3.878192398248184E-14
tp 6.984173296740857E-13 -1.016170108525594E-12 9.191753426362565E-9 -5.608336677715915E-11 3.301589477093759E-9 2.989437444902102E-11
node -1.030596467492036E-14 1.843280956439476E-14 -5.608336677715915E-11 2.335615207636015E-10 -2.371090235963692E-10 -6.648894139398518E-12
peri 2.535686071140369E-13 -3.75804100323537E-13 3.301589477093759E-9 -2.371090235963692E-10 1.404583964577413E-9 1.697456882897951E-11
i 2.015054003397008E-14 -3.878192398248184E-14 2.989437444902102E-11 -6.648894139398518E-12 1.697456882897951E-11 3.832716188199978E-11

Ephemeris | Orbit Diagram | Orbital Elements | Mission Design | Physical Parameters | Discovery Circumstances ]

Physical Parameter Table
Parameter Symbol Value Units Sigma Reference Notes
absolute magnitude H 17.8   n/a MPO476972  

413469 (2005 GN75)          Discovered 2005-Apr-05 by Mt. Lemmon Survey at Mount Lemmon
Reference: Last Updated: 2014-11-10
Ephemeris | Orbit Diagram | Orbital Elements | Mission Design | Physical Parameters | Discovery Circumstances ]
ABOUT SSD CREDITS/AWARDS PRIVACY/COPYRIGHT GLOSSARY LINKS
FirstGov 2020-Aug-09 08:53 UT
(server date/time)  
NASA Home Page
Site Manager:   Ryan S. Park
Webmaster  Alan B. Chamberlin